Volver al catálogo

STARLINK-32617

ActivoComunicacionesVLEO
NORAD 62076·PAYLOAD·🇺🇸 United States

Lanzado Nov 24, 2024 desde Vandenberg Space Force Base

Loading…

Próximos Pases (próximas 24 horas)

TLE

ActualizadoSource: CelesTrak SupGP

Época: Sep 15, 2026, 02:04 UTC

1 62076C 24217V   26258.08659722  .00020658  00000+0  61045-3 0  2586
2 62076  53.1608  18.7007 0001274  94.7278  15.5244 15.34374619    15

Sigue STARLINK-32617 en tiempo real con AllMySat

Download on the App Store